Terminal Aerodrome Forecast
Issued by NWS Flagstaff, AZ

Home | Current Version | Previous Version | Text Only | Print | Product List | Glossary On
Versions: 1 2 3 4 5 6 7 8 9 10 11 12 13
897
FTUS45 KFGZ 260521
TAFINW
TAF
KINW 260521Z 2606/2706 23005KT P6SM FEW120 SCT200
     FM261400 VRB05KT P6SM SCT200=

USA.gov is the U.S. government's official web portal to all federal, state and local government web resources and services.